Time,TemperatureF,DewpointF,PressureIn,WindDirection,WindDirectionDegrees,WindSpeedMPH,WindSpeedGustMPH,Humidity,HourlyPrecipIn,Conditions,Clouds,dailyrainin,SoftwareType,DateUTC
2015-04-26 00:09:00,43.5,39.0,30.04,NW,315,0.0,-999.0,84,-99.99,,,0.00,weatherlink.com 1.10,2015-04-26 07:09:00,
2015-04-26 00:24:00,43.5,39.0,30.05,NW,315,0.0,-999.0,85,-99.99,,,0.00,weatherlink.com 1.10,2015-04-26 07:24:00,
2015-04-26 00:39:00,43.3,39.0,30.05,NW,315,0.0,-999.0,86,-99.99,,,0.00,weatherlink.com 1.10,2015-04-26 07:39:00,
2015-04-26 00:54:00,43.1,39.0,30.06,NW,315,0.0,-999.0,86,-99.99,,,0.00,weatherlink.com 1.10,2015-04-26 07:54:00,
2015-04-26 01:09:00,42.6,39.0,30.06,NW,315,0.0,-999.0,86,-99.99,,,0.00,weatherlink.com 1.10,2015-04-26 08:09:00,
2015-04-26 01:24:00,42.1,39.0,30.05,NW,315,0.0,-999.0,87,-99.99,,,0.00,weatherlink.com 1.10,2015-04-26 08:24:00,
2015-04-26 01:39:00,41.3,38.0,30.05,NW,315,0.0,-999.0,87,-99.99,,,0.00,weatherlink.com 1.10,2015-04-26 08:39:00,
2015-04-26 01:54:00,40.6,38.0,30.05,NW,315,1.0,-999.0,89,-99.99,,,0.00,weatherlink.com 1.10,2015-04-26 08:54:00,
2015-04-26 02:09:00,40.1,38.0,30.06,NW,315,0.0,-999.0,90,-99.99,,,0.00,weatherlink.com 1.10,2015-04-26 09:09:00,
2015-04-26 02:24:00,40.1,38.0,30.06,NW,315,0.0,-999.0,91,-99.99,,,0.00,weatherlink.com 1.10,2015-04-26 09:24:00,
2015-04-26 02:39:00,40.1,38.0,30.06,NW,315,0.0,-999.0,91,-99.99,,,0.00,weatherlink.com 1.10,2015-04-26 09:39:00,
2015-04-26 03:09:00,40.1,38.0,30.07,NW,315,0.0,-999.0,92,-99.99,,,0.00,weatherlink.com 1.10,2015-04-26 10:09:00,
2015-04-26 03:24:00,40.2,38.0,30.07,NW,315,0.0,-999.0,92,-99.99,,,0.00,weatherlink.com 1.10,2015-04-26 10:24:00,
2015-04-26 03:39:00,40.5,39.0,30.08,NW,315,0.0,-999.0,93,-99.99,,,0.00,weatherlink.com 1.10,2015-04-26 10:39:00,
2015-04-26 03:54:00,40.8,39.0,30.07,NW,315,0.0,-999.0,92,-99.99,,,0.00,weatherlink.com 1.10,2015-04-26 10:54:00,
2015-04-26 04:09:00,40.8,39.0,30.07,NW,315,0.0,-999.0,92,-99.99,,,0.00,weatherlink.com 1.10,2015-04-26 11:09:00,
2015-04-26 04:24:00,40.9,39.0,30.08,NW,315,0.0,-999.0,92,-99.99,,,0.00,weatherlink.com 1.10,2015-04-26 11:24:00,
2015-04-26 04:39:00,41.1,39.0,30.07,NW,315,0.0,-999.0,91,-99.99,,,0.00,weatherlink.com 1.10,2015-04-26 11:39:00,
2015-04-26 04:54:00,41.1,39.0,30.07,NW,315,0.0,-999.0,91,-99.99,,,0.00,weatherlink.com 1.10,2015-04-26 11:54:00,
2015-04-26 05:09:00,41.1,39.0,30.08,NW,315,0.0,-999.0,91,-99.99,,,0.00,weatherlink.com 1.10,2015-04-26 12:09:00,
2015-04-26 05:24:00,40.8,38.0,30.09,NW,315,0.0,-999.0,91,-99.99,,,0.00,weatherlink.com 1.10,2015-04-26 12:24:00,
2015-04-26 05:39:00,40.6,38.0,30.08,NW,315,0.0,-999.0,91,-99.99,,,0.00,weatherlink.com 1.10,2015-04-26 12:39:00,
2015-04-26 05:54:00,40.8,38.0,30.09,NW,315,0.0,-999.0,91,-99.99,,,0.00,weatherlink.com 1.10,2015-04-26 12:54:00,
2015-04-26 06:09:00,41.1,39.0,30.09,NW,315,0.0,-999.0,92,-99.99,,,0.00,weatherlink.com 1.10,2015-04-26 13:09:00,
2015-04-26 06:24:00,41.2,39.0,30.10,NW,315,0.0,-999.0,91,-99.99,,,0.00,weatherlink.com 1.10,2015-04-26 13:24:00,
2015-04-26 06:39:00,41.6,39.0,30.10,NW,315,0.0,-999.0,91,-99.99,,,0.00,weatherlink.com 1.10,2015-04-26 13:39:00,
2015-04-26 06:54:00,41.6,39.0,30.09,NW,315,0.0,-999.0,90,-99.99,,,0.00,weatherlink.com 1.10,2015-04-26 13:54:00,
2015-04-26 07:09:00,41.8,39.0,30.10,NW,315,0.0,-999.0,91,-99.99,,,0.00,weatherlink.com 1.10,2015-04-26 14:09:00,
2015-04-26 07:24:00,42.3,40.0,30.11,NW,315,0.0,-999.0,90,-99.99,,,0.00,weatherlink.com 1.10,2015-04-26 14:24:00,
2015-04-26 07:39:00,43.1,40.0,30.12,NW,315,0.0,-999.0,88,-99.99,,,0.00,weatherlink.com 1.10,2015-04-26 14:39:00,
2015-04-26 07:54:00,43.5,40.0,30.13,NW,315,0.0,-999.0,87,-99.99,,,0.00,weatherlink.com 1.10,2015-04-26 14:54:00,
2015-04-26 08:09:00,43.9,40.0,30.14,NW,315,0.0,-999.0,85,-99.99,,,0.00,weatherlink.com 1.10,2015-04-26 15:09:00,
2015-04-26 08:25:00,44.3,40.0,30.16,NW,315,0.0,-999.0,84,-99.99,,,0.00,weatherlink.com 1.10,2015-04-26 15:25:00,
2015-04-26 08:40:00,45.2,40.0,30.16,NW,319,1.0,-999.0,83,-99.99,,,0.00,weatherlink.com 1.10,2015-04-26 15:40:00,